Location: El Hornillo
(40.2499°N, 5.1036°W)
Time: 10:45:54
(UTC+00:00)

Cosmos-2242 - Pass Details

Date: 05 August 2024
Orbit: 578 x 601 km, 82.5° (Epoch: 18 September)

Event Time Altitude Azimuth Distance (km) Brightness Sun altitude
Rises 21:10:09 0° 358° (N) 2,803 7.1 -17.1°
Reaches altitude 10° 21:12:24 10° 3° (N) 1,901 6.1 -17.4°
Maximum altitude 21:16:28 50° 79° (E) 748 3.2 -18.0°
Enters shadow 21:17:27 41° 122° (ESE) 856 3.3 -18.1°
